Current Version              Previous Version:    01  02  03  04  05  06  07  08  09  10  11  12  13  14  15  16  17  18  19  20  21  22  23  24  25  26  27  28  29  30  
   31  32  33  34  35  36  37  38  39  40  41  42  43  44  45  46  47  48  49  50  51  52  53  54  55  56  57  58  59  60  

[Printable]
680
ASUS44 KFWD 201101
RWRTX
NORTH TEXAS HOURLY WEATHER ROUNDUP
NATIONAL WEATHER SERVICE FORT WORTH TX
600 AM CDT WED AUG 20 2014

NOTE: "FAIR" INDICATES FEW OR NO CLOUDS BELOW 12,000 FEET WITH NO
SIGNIFICANT WEATHER AND/OR OBSTRUCTIONS TO VISIBILITY.

TXZ118-119-201200-
DALLAS/FORT WORTH METROPLEX

CITY           SKY/WX    TMP DP  RH WIND       PRES   REMARKS
DFW AIRPORT    CLOUDY    81  69  67 S13       29.90R
DALLAS LOVE    CLOUDY    80  70  71 S13       29.92R
FTW MEACHAM    CLOUDY    81  70  69 S12       29.90R
DAL-EXECUTIVE  CLOUDY    79  71  76 S8        29.92R
FTW-ALLIANCE   CLOUDY    79  69  71 S10       29.89S
FTW-NAS-JRB    CLOUDY    82  68  62 S15       29.94R
ARLINGTON      CLOUDY    79  69  71 S12       29.91R
GRAND PRAIRIE  CLOUDY    79  68  69 S8        29.92R
ADDISON        MOCLDY    81  68  65 S12       29.93S
LANCASTER      CLOUDY    77  70  79 S6        29.94R
$$

TXZ091>094-102>105-117-120-121-131>134-201200-
NORTH CENTRAL TEXAS

CITY           SKY/WX    TMP DP  RH WIND       PRES   REMARKS
SHRMAN/DENISON CLOUDY    77  70  78 S7        29.93R
GAINESVILLE    CLOUDY    77  69  77 SE6       29.93R
BOWIE          CLOUDY    77  70  78 SE9       29.91R
BRIDGEPORT     PTCLDY    78  67  69 S6        29.92R
DECATUR        MOCLDY    78  68  72 S12       29.92R
DENTON         CLOUDY    79  69  71 S8        29.91R
MCKINNEY       CLOUDY    78  70  76 SE8       29.93R
ROCKWALL       CLOUDY    77  73  85 S8        29.92S
TERRELL        CLOUDY    79  75  87 S6        29.95R
WAXAHACHIE     CLOUDY    76  69  79 SE6       29.94R
CLEBURNE       CLOUDY    79  73  83 S12       29.93S
GRANBURY       CLOUDY    81  67  62 S9G16     29.92R
$$

TXZ083>090-098>101-113>116-127>130-139>142-154-155-201200-
WESTERN NORTH TEXAS

CITY           SKY/WX    TMP DP  RH WIND       PRES   REMARKS
WICHITA FALLS  CLEAR     77  67  71 S8        29.87R
WF-KICKAPOO    CLEAR     76  66  71 SE7       29.89S
VERNON           N/A    N/A N/A N/A S6        29.88R
ABILENE        CLEAR     76  67  73 S14       29.91R
BRECKENRIDGE   CLEAR     79  61  53 S10G16    29.90R HAZE
MINERAL WELLS  PTCLDY    77  69  76 SE7       29.90R
STEPHENVILLE   MOCLDY    77  66  70 S8        29.95R
COMANCHE       PTCLDY    75  66  72 S12       29.93R
BROWNWOOD      CLOUDY    75  64  69 SE12G17   29.93R
COLEMAN        CLEAR     74  65  74 S10       29.94R
BRADY          CLEAR     72  66  83 SE10      29.95R
$$

TXZ143>147-156>162-174-175-201200-
CENTRAL TEXAS

CITY           SKY/WX    TMP DP  RH WIND       PRES   REMARKS
WACO           CLOUDY    79  72  79 S10       29.93R
WACO-MCGREGOR  CLOUDY    79  68  69 S12       29.94R
HILLSBORO      CLOUDY    78  69  74 SE7       29.94R HAZE
CORSICANA      CLOUDY    78  72  81 S8        29.95R
MEXIA          CLOUDY    76  73  91 S5        29.94R
CAMERON        MOCLDY    80  74  84 S6        29.93R
TEMPLE         MOCLDY    77  68  73 S10       29.93R
KILLEEN        PTCLDY    77  72  83 S14       29.94R
KILLEEN-SKYLRK MOCLDY    77  66  69 S8        29.92S
FORT HOOD      MOCLDY    79  72  79 S8        29.94R
HAMILTON       PTCLDY    75  68  77 S12G21    29.95R
LAMPASAS       PTCLDY    76  73  90 S5        29.95R
$$

TXZ095>097-106>112-122>126-135>138-148>153-164>167-201200-
EAST TEXAS

CITY           SKY/WX    TMP DP  RH WIND       PRES   REMARKS
PARIS          MOCLDY    72  64  78 S7        29.96R
SULPHUR SPRNGS MOCLDY    78  71  80 S6        29.97R
CLARKSVILLE    PTCLDY    71  70  95 CALM      29.96R
MOUNT PLEASANT CLEAR     69  68  97 SE3       29.98R
MINEOLA        MOCLDY    75  73  94 CALM      29.97R
TYLER          MOCLDY    75  72  90 S5        29.96R
LONGVIEW       PTCLDY    75  71  87 S7        29.97R
MARSHALL       PTCLDY    73  71  91 CALM      29.99R
ATHENS         CLOUDY    73  72  94 S7        29.95R
PALESTINE      MOCLDY    76  74  96 S5        29.97R
JACKSONVILLE   CLOUDY    74  73  96 S9        30.00R FOG
HENDERSON      CLOUDY    73  72  97 CALM      29.99R
NACOGDOCHES    MOCLDY    72  70  94 SE3       29.98R
LUFKIN         MOCLDY    75  71  87 SE3       29.97R
$$

SUPPLEMENTAL OBSERVATIONS (CENTRAL)

CITY           SKY/WX    TMP DP  RH WIND       PRES   REMARKS
$$

SUPPLEMENTAL OBSERVATIONS (WEST)

CITY           SKY/WX    TMP DP  RH WIND       PRES   REMARKS
$$

SUPPLEMENTAL OBSERVATIONS (EAST)

CITY           SKY/WX    TMP DP  RH WIND       PRES   REMARKS
$$

SUPPLEMENTAL OBSERVATIONS ARE A COLLECTION OF AUTOMATED INSTRUMENTS
THAT ARE MAINTAINED BY A VARIETY OF FEDERAL AND STATE AGENCIES.
CERTAIN ELEMENTS...SUCH AS HUMIDITY VALUES AND SUSTAINED WIND
SPEEDS...MAY BE APPROXIMATED.